Location: El Álamo
(40.2307°N, 3.9945°W)
Time: 03:01:52
(UTC+00:00)

Terra - Pass Details

Date: 19 May 2025
Orbit: 690 x 691 km, 98.0° (Epoch: 23 June)

Event Time Altitude Azimuth Distance (km) Brightness Sun altitude
Exits shadow 22:28:50 10° 238° (WSW) 2,122 4.2 -25.1°
Maximum altitude 22:31:13 14° 269° (W) 1,877 4.3 -25.3°
Drops below altitude 10° 22:33:41 10° 301° (WNW) 2,147 5.0 -25.5°
Sets 22:37:01 0° 326° (NNW) 3,070 6.4 -25.8°
